| time (UTC) | temp F | wind direction | speed MPH | gust MPH | rain 1hr in | rain 24hr in | rain mn in | humidity % | barometer mb |
| 20260507090516 | 51 | 338 | 2.0 | 4.0 | 0.00 | 0.00 | 0.00 | 85 | 1017.4 |
| 20260507085536 | 51 | 23 | 1.0 | 3.0 | 0.00 | 0.00 | 0.00 | 85 | 1017.5 |
| 20260507084516 | 51 | 45 | 1.0 | 3.0 | 0.00 | 0.00 | 0.00 | 85 | 1017.5 |
| 20260507083516 | 52 | 0 | 1.0 | 4.0 | 0.00 | 0.00 | 0.00 | 85 | 1017.6 |
| 20260507082516 | 52 | 0.0 | 2.0 | 0.00 | 0.00 | 0.00 | 85 | 1017.6 | |
| 20260507081516 | 52 | 45 | 1.0 | 3.0 | 0.00 | 0.00 | 0.00 | 85 | 1017.4 |
| 20260507080515 | 52 | 23 | 2.0 | 5.0 | 0.00 | 0.00 | 0.00 | 86 | 1017.3 |
| 20260507075516 | 52 | 45 | 2.0 | 5.0 | 0.00 | 0.00 | 0.00 | 86 | 1017.0 |
| 20260507074516 | 51 | 23 | 1.0 | 4.0 | 0.00 | 0.00 | 0.00 | 86 | 1017.2 |
| 20260507073515 | 51 | 23 | 1.0 | 4.0 | 0.00 | 0.00 | 0.00 | 86 | 1017.2 |
| 20260507072516 | 51 | 0.0 | 1.0 | 0.00 | 0.00 | 0.00 | 86 | 1017.3 | |
| 20260507071516 | 52 | 0.0 | 2.0 | 0.00 | 0.00 | 0.00 | 86 | 1017.5 | |
| 20260507070535 | 52 | 23 | 1.0 | 3.0 | 0.00 | 0.00 | 0.00 | 86 | 1017.4 |
| 20260507065515 | 52 | 0 | 1.0 | 4.0 | 0.00 | 0.00 | 0.00 | 86 | 1017.2 |
| 20260507064536 | 52 | 0.0 | 2.0 | 0.00 | 0.00 | 0.00 | 86 | 1017.3 | |
| 20260507063515 | 51 | 0.0 | 1.0 | 0.00 | 0.00 | 0.00 | 87 | 1017.2 | |
| 20260507062515 | 51 | 0.0 | 0.0 | 0.00 | 0.00 | 0.00 | 86 | 1017.1 | |
| 20260507061535 | 51 | 0.0 | 0.0 | 0.00 | 0.00 | 0.00 | 86 | 1017.1 | |
| 20260507060515 | 52 | 0.0 | 2.0 | 0.00 | 0.00 | 0.00 | 86 | 1017.1 | |
| 20260507055517 | 52 | 23 | 1.0 | 3.0 | 0.00 | 0.00 | 0.00 | 86 | 1016.9 |
| 20260507054517 | 52 | 0.0 | 1.0 | 0.00 | 0.00 | 0.00 | 86 | 1016.7 | |
| 20260507053517 | 52 | 0.0 | 2.0 | 0.00 | 0.00 | 0.00 | 86 | 1016.6 | |
| 20260507052517 | 52 | 68 | 1.0 | 4.0 | 0.00 | 0.00 | 0.00 | 86 | 1016.4 |
| 20260507051517 | 52 | 0.0 | 0.0 | 0.00 | 0.00 | 0.00 | 86 | 1016.4 | |
| 20260507050517 | 52 | 0.0 | 2.0 | 0.00 | 0.00 | 0.00 | 86 | 1016.4 | |
| 20260507045516 | 52 | 68 | 1.0 | 3.0 | 0.00 | 0.00 | 0.00 | 85 | 1016.2 |
| 20260507044535 | 52 | 68 | 1.0 | 3.0 | 0.00 | 0.00 | 0.00 | 85 | 1016.1 |
| 20260507043515 | 52 | 90 | 1.0 | 3.0 | 0.00 | 0.00 | 0.00 | 85 | 1016.3 |
| 20260507042516 | 52 | 0.0 | 1.0 | 0.00 | 0.00 | 0.00 | 84 | 1016.5 | |
| 20260507041515 | 52 | 0.0 | 2.0 | 0.00 | 0.00 | 0.00 | 84 | 1016.5 | |
| 20260507040516 | 52 | 0.0 | 0.0 | 0.00 | 0.00 | 0.00 | 84 | 1016.5 | |
| 20260507035515 | 53 | 0.0 | 2.0 | 0.00 | 0.00 | 0.00 | 83 | 1016.3 | |
| 20260507034516 | 53 | 0.0 | 0.0 | 0.00 | 0.00 | 0.00 | 83 | 1016.3 | |
| 20260507033515 | 53 | 113 | 1.0 | 2.0 | 0.00 | 0.00 | 0.00 | 82 | 1016.2 |
| 20260507032515 | 53 | 113 | 1.0 | 3.0 | 0.00 | 0.00 | 0.00 | 82 | 1016.2 |
| 20260507031515 | 54 | 0.0 | 0.0 | 0.00 | 0.00 | 0.00 | 81 | 1016.2 | |
| 20260507030515 | 54 | 68 | 1.0 | 2.0 | 0.00 | 0.00 | 0.00 | 81 | 1016.1 |
| 20260507025515 | 55 | 0.0 | 2.0 | 0.00 | 0.00 | 0.00 | 80 | 1016.0 | |
| 20260507024515 | 55 | 68 | 1.0 | 3.0 | 0.00 | 0.00 | 0.00 | 79 | 1015.9 |
| 20260507023517 | 56 | 45 | 1.0 | 3.0 | 0.00 | 0.00 | 0.00 | 78 | 1015.9 |
| 20260507022515 | 57 | 45 | 1.0 | 4.0 | 0.00 | 0.00 | 0.00 | 77 | 1015.8 |
| 20260507021517 | 57 | 45 | 2.0 | 4.0 | 0.00 | 0.00 | 0.00 | 76 | 1015.7 |
| 20260507020517 | 58 | 45 | 3.0 | 5.0 | 0.00 | 0.00 | 0.00 | 75 | 1015.5 |
| 20260507015517 | 59 | 45 | 4.0 | 8.0 | 0.00 | 0.00 | 0.00 | 74 | 1015.3 |
| 20260507014517 | 59 | 45 | 3.0 | 9.0 | 0.00 | 0.00 | 0.00 | 74 | 1015.1 |
| 20260507013517 | 59 | 45 | 3.0 | 7.0 | 0.00 | 0.00 | 0.00 | 73 | 1014.9 |
| 20260507012517 | 59 | 23 | 4.0 | 10.0 | 0.00 | 0.00 | 0.00 | 73 | 1014.7 |
| 20260507011517 | 60 | 23 | 3.0 | 6.0 | 0.00 | 0.00 | 0.00 | 73 | 1014.6 |
| 20260507010515 | 60 | 23 | 3.0 | 9.0 | 0.00 | 0.00 | 0.00 | 73 | 1014.5 |
| 20260507005517 | 60 | 23 | 3.0 | 8.0 | 0.00 | 0.00 | 0.00 | 72 | 1014.3 |
| 20260507004517 | 60 | 45 | 5.0 | 10.0 | 0.00 | 0.00 | 0.00 | 72 | 1014.2 |
| 20260507003517 | 61 | 45 | 6.0 | 11.0 | 0.00 | 0.00 | 0.00 | 72 | 1014.2 |
| 20260507002517 | 61 | 23 | 5.0 | 13.0 | 0.00 | 0.00 | 0.00 | 71 | 1014.0 |
| 20260507001537 | 62 | 23 | 5.0 | 11.0 | 0.00 | 0.00 | 0.00 | 71 | 1013.7 |
| 20260507000517 | 62 | 45 | 5.0 | 11.0 | 0.00 | 0.00 | 0.00 | 71 | 1013.6 |
| 20260506235516 | 62 | 23 | 3.0 | 9.0 | 0.00 | 0.00 | 0.00 | 71 | 1013.6 |
| 20260506234517 | 62 | 23 | 6.0 | 11.0 | 0.00 | 0.00 | 0.00 | 70 | 1013.5 |
| 20260506233517 | 63 | 45 | 6.0 | 12.0 | 0.00 | 0.00 | 0.00 | 69 | 1013.3 |
| 20260506232516 | 63 | 23 | 4.0 | 10.0 | 0.00 | 0.00 | 0.00 | 69 | 1013.2 |
| 20260506231516 | 63 | 23 | 6.0 | 11.0 | 0.00 | 0.00 | 0.00 | 69 | 1013.0 |
| 20260506230517 | 63 | 23 | 6.0 | 11.0 | 0.00 | 0.00 | 0.00 | 69 | 1013.0 |
| 20260506225516 | 64 | 23 | 5.0 | 13.0 | 0.00 | 0.00 | 0.00 | 68 | 1013.0 |
| 20260506224517 | 64 | 23 | 7.0 | 12.0 | 0.00 | 0.00 | 0.00 | 67 | 1013.0 |
| 20260506223516 | 65 | 0 | 6.0 | 12.0 | 0.00 | 0.00 | 0.00 | 66 | 1013.0 |
| 20260506222516 | 65 | 23 | 6.0 | 11.0 | 0.00 | 0.00 | 0.00 | 67 | 1012.9 |
| 20260506221516 | 66 | 23 | 5.0 | 12.0 | 0.00 | 0.00 | 0.00 | 65 | 1012.8 |
| 20260506220516 | 66 | 23 | 5.0 | 10.0 | 0.00 | 0.00 | 0.00 | 66 | 1012.7 |
| 20260506215536 | 66 | 23 | 3.0 | 10.0 | 0.00 | 0.00 | 0.00 | 66 | 1012.7 |
| 20260506214536 | 65 | 45 | 5.0 | 11.0 | 0.00 | 0.00 | 0.00 | 66 | 1012.8 |
| 20260506213536 | 66 | 45 | 7.0 | 11.0 | 0.00 | 0.00 | 0.00 | 65 | 1012.9 |
| 20260506212516 | 66 | 0 | 4.0 | 8.0 | 0.00 | 0.00 | 0.00 | 66 | 1013.0 |
| 20260506211516 | 66 | 23 | 5.0 | 11.0 | 0.00 | 0.00 | 0.00 | 65 | 1012.9 |
| 20260506210516 | 67 | 0 | 4.0 | 9.0 | 0.00 | 0.00 | 0.00 | 65 | 1012.9 |
| 20260506205536 | 67 | 23 | 5.0 | 11.0 | 0.00 | 0.00 | 0.00 | 65 | 1013.0 |
| 20260506204516 | 66 | 68 | 4.0 | 10.0 | 0.00 | 0.00 | 0.00 | 66 | 1013.2 |
| 20260506203516 | 65 | 45 | 6.0 | 12.0 | 0.00 | 0.00 | 0.00 | 66 | 1013.4 |
| 20260506202516 | 65 | 68 | 4.0 | 9.0 | 0.00 | 0.00 | 0.00 | 66 | 1013.5 |
| 20260506201516 | 65 | 45 | 4.0 | 9.0 | 0.00 | 0.00 | 0.00 | 66 | 1013.5 |
| 20260506200516 | 65 | 68 | 3.0 | 9.0 | 0.00 | 0.00 | 0.00 | 67 | 1013.4 |
| 20260506195536 | 66 | 90 | 6.0 | 11.0 | 0.00 | 0.00 | 0.00 | 64 | 1013.6 |
| 20260506194516 | 65 | 0 | 3.0 | 7.0 | 0.00 | 0.00 | 0.00 | 65 | 1013.6 |
| 20260506193516 | 65 | 23 | 4.0 | 10.0 | 0.00 | 0.00 | 0.00 | 67 | 1013.5 |
| 20260506192515 | 65 | 0 | 4.0 | 9.0 | 0.00 | 0.00 | 0.00 | 67 | 1013.0 |
| 20260506191516 | 64 | 23 | 6.0 | 12.0 | 0.00 | 0.00 | 0.00 | 67 | 1012.9 |
| 20260506190516 | 64 | 68 | 7.0 | 14.0 | 0.00 | 0.00 | 0.00 | 66 | 1012.8 |
| 20260506185516 | 64 | 293 | 6.0 | 10.0 | 0.00 | 0.00 | 0.00 | 68 | 1013.1 |
| 20260506184516 | 64 | 23 | 3.0 | 10.0 | 0.00 | 0.00 | 0.00 | 69 | 1013.2 |
| 20260506183535 | 63 | 45 | 6.0 | 11.0 | 0.00 | 0.00 | 0.00 | 68 | 1013.3 |
| 20260506182515 | 62 | 45 | 7.0 | 13.0 | 0.00 | 0.00 | 0.00 | 69 | 1013.3 |
| 20260506181535 | 61 | 0 | 7.0 | 12.0 | 0.00 | 0.00 | 0.00 | 71 | 1013.3 |
| 20260506180515 | 61 | 23 | 6.0 | 12.0 | 0.00 | 0.00 | 0.00 | 68 | 1013.2 |
| 20260506175516 | 62 | 45 | 6.0 | 13.0 | 0.00 | 0.00 | 0.00 | 70 | 1013.3 |
| 20260506174515 | 61 | 45 | 8.0 | 15.0 | 0.00 | 0.00 | 0.00 | 69 | 1013.3 |
| 20260506173515 | 61 | 23 | 7.0 | 15.0 | 0.00 | 0.00 | 0.00 | 69 | 1013.6 |
| 20260506172536 | 61 | 45 | 7.0 | 16.0 | 0.00 | 0.00 | 0.00 | 70 | 1013.7 |
| 20260506171535 | 60 | 23 | 5.0 | 11.0 | 0.00 | 0.00 | 0.00 | 71 | 1013.6 |
| 20260506170515 | 59 | 45 | 8.0 | 15.0 | 0.00 | 0.00 | 0.00 | 72 | 1013.7 |
| 20260506165515 | 58 | 45 | 9.0 | 17.0 | 0.00 | 0.00 | 0.00 | 73 | 1013.6 |
| 20260506164515 | 57 | 45 | 7.0 | 16.0 | 0.00 | 0.00 | 0.00 | 73 | 1013.7 |
| 20260506163517 | 56 | 23 | 6.0 | 13.0 | 0.00 | 0.00 | 0.00 | 74 | 1013.6 |
| 20260506162517 | 55 | 45 | 6.0 | 12.0 | 0.00 | 0.00 | 0.00 | 75 | 1013.6 |
| 20260506161517 | 55 | 45 | 7.0 | 13.0 | 0.00 | 0.00 | 0.00 | 75 | 1013.7 |
| 20260506160517 | 54 | 45 | 5.0 | 10.0 | 0.00 | 0.00 | 0.00 | 77 | 1013.3 |
| 20260506155517 | 54 | 45 | 6.0 | 12.0 | 0.00 | 0.00 | 0.00 | 76 | 1013.4 |
| 20260506154515 | 54 | 23 | 4.0 | 9.0 | 0.00 | 0.00 | 0.00 | 77 | 1014.1 |
| 20260506153517 | 54 | 23 | 4.0 | 9.0 | 0.00 | 0.00 | 0.00 | 77 | 1014.6 |
| 20260506152517 | 53 | 23 | 3.0 | 6.0 | 0.00 | 0.00 | 0.00 | 77 | 1014.8 |
| 20260506151517 | 53 | 68 | 1.0 | 3.0 | 0.00 | 0.00 | 0.00 | 77 | 1015.5 |
| 20260506150517 | 53 | 0 | 4.0 | 11.0 | 0.00 | 0.00 | 0.00 | 78 | 1014.3 |
| 20260506145517 | 53 | 23 | 4.0 | 9.0 | 0.00 | 0.00 | 0.00 | 79 | 1013.8 |
| 20260506144517 | 53 | 23 | 5.0 | 10.0 | 0.00 | 0.00 | 0.00 | 79 | 1014.2 |
| 20260506143557 | 53 | 23 | 4.0 | 10.0 | 0.00 | 0.00 | 0.00 | 80 | 1013.7 |
| 20260506142517 | 52 | 45 | 3.0 | 9.0 | 0.00 | 0.00 | 0.00 | 80 | 1013.8 |
| 20260506141557 | 52 | 23 | 3.0 | 7.0 | 0.00 | 0.00 | 0.00 | 81 | 1013.7 |
| 20260506140516 | 52 | 45 | 3.0 | 10.0 | 0.00 | 0.00 | 0.00 | 82 | 1014.0 |
| 20260506135516 | 51 | 0 | 4.0 | 10.0 | 0.00 | 0.00 | 0.00 | 83 | 1013.6 |
| 20260506134516 | 51 | 23 | 5.0 | 9.0 | 0.00 | 0.00 | 0.00 | 84 | 1013.0 |
| 20260506133516 | 51 | 0 | 3.0 | 7.0 | 0.00 | 0.00 | 0.00 | 85 | 1013.1 |
| 20260506132517 | 50 | 45 | 3.0 | 9.0 | 0.00 | 0.00 | 0.00 | 87 | 1012.9 |
| 20260506131536 | 50 | 23 | 3.0 | 9.0 | 0.00 | 0.00 | 0.00 | 88 | 1012.8 |
| 20260506130516 | 50 | 23 | 3.0 | 8.0 | 0.00 | 0.00 | 0.00 | 88 | 1012.7 |
| 20260506125516 | 50 | 23 | 4.0 | 8.0 | 0.00 | 0.00 | 0.00 | 88 | 1012.4 |
| 20260506124517 | 50 | 23 | 3.0 | 10.0 | 0.00 | 0.00 | 0.00 | 88 | 1012.4 |
| 20260506123516 | 50 | 23 | 2.0 | 5.0 | 0.00 | 0.00 | 0.00 | 88 | 1012.2 |
| 20260506122536 | 50 | 23 | 2.0 | 8.0 | 0.00 | 0.00 | 0.00 | 88 | 1012.1 |
| 20260506121516 | 50 | 0 | 1.0 | 4.0 | 0.00 | 0.00 | 0.00 | 87 | 1012.3 |
| 20260506120516 | 50 | 23 | 4.0 | 11.0 | 0.00 | 0.00 | 0.00 | 87 | 1012.2 |
| 20260506115516 | 50 | 0 | 2.0 | 8.0 | 0.00 | 0.00 | 0.00 | 87 | 1012.3 |
| 20260506114516 | 50 | 0 | 2.0 | 6.0 | 0.00 | 0.00 | 0.00 | 87 | 1012.4 |
| 20260506113516 | 50 | 0 | 3.0 | 8.0 | 0.00 | 0.00 | 0.00 | 87 | 1012.0 |
| 20260506112516 | 50 | 0 | 2.0 | 9.0 | 0.00 | 0.00 | 0.00 | 87 | 1011.7 |
| 20260506111516 | 50 | 23 | 2.0 | 6.0 | 0.00 | 0.00 | 0.00 | 86 | 1011.6 |
| 20260506110536 | 50 | 293 | 3.0 | 9.0 | 0.00 | 0.00 | 0.00 | 86 | 1011.4 |
| 20260506105516 | 51 | 23 | 5.0 | 10.0 | 0.00 | 0.00 | 0.00 | 85 | 1011.5 |
| 20260506104536 | 51 | 0 | 4.0 | 10.0 | 0.00 | 0.00 | 0.00 | 83 | 1011.3 |
| 20260506103516 | 52 | 338 | 4.0 | 11.0 | 0.00 | 0.00 | 0.00 | 82 | 1011.3 |
| 20260506102556 | 52 | 23 | 3.0 | 9.0 | 0.00 | 0.00 | 0.00 | 80 | 1011.3 |
| 20260506101516 | 53 | 23 | 3.0 | 9.0 | 0.00 | 0.00 | 0.00 | 79 | 1011.3 |
| 20260506100516 | 53 | 338 | 2.0 | 7.0 | 0.00 | 0.00 | 0.00 | 78 | 1011.0 |
| 20260506095536 | 53 | 293 | 3.0 | 10.0 | 0.00 | 0.00 | 0.00 | 78 | 1011.1 |
| 20260506094516 | 54 | 23 | 3.0 | 9.0 | 0.00 | 0.00 | 0.00 | 77 | 1010.8 |
| 20260506093516 | 54 | 0 | 2.0 | 7.0 | 0.00 | 0.00 | 0.00 | 77 | 1010.6 |
| 20260506092536 | 54 | 0 | 4.0 | 9.0 | 0.00 | 0.00 | 0.00 | 76 | 1010.2 |
| 20260506091516 | 54 | 23 | 3.0 | 8.0 | 0.00 | 0.00 | 0.00 | 77 | 1010.2 |